AXI650 KFRG-MMHO

Flight info

Callsign AXI650
Flight time N/A
Altitude 36000
Route DCT
Aircraft GLF6/M-SDE3FGHIRWY/LB1

Departure

Time 2026-04-23 13:49
Airport Republic Airport (KFRG)

Arrival

Time N/A
Airport General Ignacio L. Pesqueira International Airport (MMHO)
Time Latitude Longitude Altitude Speed Heading
2026-04-23 13:31 40.72834 -73.41640 73 ft 0 kts 223°
2026-04-23 13:43 40.72831 -73.41643 73 ft 1 kts 223°
2026-04-23 13:43 40.72822 -73.41670 73 ft 4 kts 276°
2026-04-23 13:43 40.72854 -73.41718 74 ft 8 kts 324°
2026-04-23 13:44 40.72904 -73.41740 74 ft 7 kts
2026-04-23 13:44 40.72947 -73.41701 74 ft 7 kts 41°
2026-04-23 13:44 40.72952 -73.41648 73 ft 8 kts 130°
2026-04-23 13:44 40.72904 -73.41577 72 ft 12 kts 132°
2026-04-23 13:45 40.72846 -73.41493 71 ft 13 kts 132°
2026-04-23 13:45 40.72783 -73.41402 70 ft 12 kts 133°
2026-04-23 13:45 40.72727 -73.41322 70 ft 12 kts 132°
2026-04-23 13:45 40.72673 -73.41242 69 ft 11 kts 133°
2026-04-23 13:46 40.72610 -73.41153 67 ft 14 kts 133°
2026-04-23 13:46 40.72544 -73.41058 66 ft 14 kts 133°
2026-04-23 13:46 40.72474 -73.40956 64 ft 13 kts 132°
2026-04-23 13:46 40.72409 -73.40861 64 ft 14 kts 132°
2026-04-23 13:47 40.72339 -73.40761 64 ft 15 kts 133°
2026-04-23 13:47 40.72267 -73.40656 62 ft 15 kts 133°
2026-04-23 13:47 40.72201 -73.40561 61 ft 13 kts 133°
2026-04-23 13:47 40.72143 -73.40476 60 ft 7 kts 128°
2026-04-23 13:48 40.72147 -73.40433 60 ft 5 kts 42°
2026-04-23 13:48 40.72176 -73.40398 60 ft 6 kts 42°
2026-04-23 13:48 40.72210 -73.40366 60 ft 4 kts
2026-04-23 13:48 40.72230 -73.40389 60 ft 4 kts 312°
2026-04-23 13:49 40.72348 -73.40559 62 ft 67 kts 313°
2026-04-23 13:49 40.72879 -73.41325 84 ft 154 kts 312°
2026-04-23 13:49 40.73656 -73.42437 828 ft 181 kts 313°
2026-04-23 13:49 40.74546 -73.43755 1683 ft 184 kts 312°
2026-04-23 13:50 40.75568 -73.44756 2411 ft 200 kts 338°
2026-04-23 13:50 40.76760 -73.45446 3657 ft 204 kts 333°
2026-04-23 13:50 40.78123 -73.46433 4518 ft 230 kts 329°
2026-04-23 13:50 40.79479 -73.47527 5763 ft 238 kts 327°
2026-04-23 13:51 40.80823 -73.48686 7106 ft 241 kts 326°
2026-04-23 13:51 40.82187 -73.49910 8434 ft 244 kts 324°
2026-04-23 13:51 40.83551 -73.51162 9788 ft 245 kts 323°
2026-04-23 13:51 40.84977 -73.52494 10424 ft 271 kts 323°
2026-04-23 13:52 40.86639 -73.54062 10630 ft 311 kts 323°
2026-04-23 13:52 40.88438 -73.55767 11526 ft 326 kts 323°
2026-04-23 13:52 40.90303 -73.57539 12666 ft 334 kts 323°
2026-04-23 13:52 40.92182 -73.59328 13796 ft 340 kts 323°
2026-04-23 13:53 40.94048 -73.61209 14851 ft 344 kts 315°
2026-04-23 13:53 40.95307 -73.63904 15981 ft 352 kts 292°
2026-04-23 13:53 40.95846 -73.67088 16997 ft 364 kts 283°
2026-04-23 13:53 40.96101 -73.70403 18098 ft 371 kts 279°
2026-04-23 13:54 40.96243 -73.73840 19212 ft 377 kts 278°
2026-04-23 13:54 40.96326 -73.77295 20216 ft 384 kts 277°
2026-04-23 13:54 40.96385 -73.80846 21327 ft 388 kts 277°
2026-04-23 13:54 40.96433 -73.84403 22171 ft 398 kts 277°
2026-04-23 13:55 40.96473 -73.88058 23198 ft 402 kts 276°
2026-04-23 13:55 40.96511 -73.91743 24290 ft 405 kts 277°
2026-04-23 13:55 40.96549 -73.95527 25137 ft 412 kts 278°
2026-04-23 13:55 40.96585 -73.99274 26010 ft 418 kts 278°
2026-04-23 13:56 40.96622 -74.03178 26902 ft 423 kts 278°
2026-04-23 13:56 40.96658 -74.07069 27680 ft 429 kts 279°
2026-04-23 13:56 40.96690 -74.11008 28386 ft 437 kts 279°
2026-04-23 13:56 40.96726 -74.15027 29082 ft 443 kts 279°
2026-04-23 13:57 40.96757 -74.19144 29932 ft 446 kts 279°
2026-04-23 13:57 40.96789 -74.23226 30573 ft 451 kts 279°
2026-04-23 13:57 40.96820 -74.27406 31178 ft 457 kts 279°
2026-04-23 13:57 40.96849 -74.31599 31617 ft 463 kts 280°
2026-04-23 13:58 40.96876 -74.35861 32225 ft 466 kts 279°
2026-04-23 13:58 40.96904 -74.40236 32816 ft 468 kts 279°
2026-04-23 13:58 40.96925 -74.44492 33401 ft 469 kts 279°
2026-04-23 13:58 40.96949 -74.48799 33999 ft 469 kts 279°
2026-04-23 13:59 40.96971 -74.53071 34756 ft 464 kts 279°
2026-04-23 13:59 40.96990 -74.57354 35266 ft 464 kts 279°
2026-04-23 13:59 40.97008 -74.61624 35693 ft 466 kts 279°
2026-04-23 13:59 40.97027 -74.65910 35824 ft 467 kts 278°
2026-04-23 14:00 40.97043 -74.70226 35843 ft 475 kts 278°
2026-04-23 14:00 40.97068 -74.79022 35844 ft 481 kts 278°
2026-04-23 14:01 40.97087 -74.87830 35849 ft 482 kts 278°
2026-04-23 14:01 40.96417 -74.96694 35839 ft 506 kts 258°
2026-04-23 14:01 40.94759 -75.00852 35864 ft 523 kts 246°
2026-04-23 14:02 40.92788 -75.04901 35842 ft 526 kts 246°
2026-04-23 14:02 40.88856 -75.12997 35845 ft 525 kts 246°
2026-04-23 14:03 40.85027 -75.20878 35848 ft 525 kts 246°
2026-04-23 14:03 40.81430 -75.28260 35853 ft 525 kts 246°
2026-04-23 14:04 40.77498 -75.36310 35858 ft 525 kts 246°
2026-04-23 14:04 40.74146 -75.44668 35861 ft 516 kts 253°
2026-04-23 14:05 40.70985 -75.53158 35864 ft 517 kts 253°
2026-04-23 14:05 40.67805 -75.61654 35867 ft 515 kts 252°
2026-04-23 14:06 40.64634 -75.70101 35868 ft 517 kts 252°
2026-04-23 14:06 40.61433 -75.78603 35868 ft 517 kts 251°
2026-04-23 14:07 40.58234 -75.87052 35865 ft 517 kts 252°
2026-04-23 14:07 40.53409 -75.99736 35865 ft 518 kts 251°
2026-04-23 14:08 40.50178 -76.08198 35866 ft 519 kts 251°
2026-04-23 14:08 40.46941 -76.16653 35869 ft 520 kts 252°
2026-04-23 14:09 40.43691 -76.25115 35864 ft 518 kts 251°
2026-04-23 14:09 40.40449 -76.33533 35874 ft 519 kts 251°
2026-04-23 14:10 40.37181 -76.41994 35860 ft 519 kts 251°
2026-04-23 14:10 40.33917 -76.50397 35871 ft 520 kts 251°
2026-04-23 14:11 40.30570 -76.58767 35868 ft 520 kts 251°
2026-04-23 14:11 40.27198 -76.67180 35887 ft 522 kts 250°
2026-04-23 14:12 40.23815 -76.75597 35871 ft 523 kts 250°
2026-04-23 14:12 40.20423 -76.84015 35884 ft 522 kts 250°
2026-04-23 14:13 40.17038 -76.92389 35883 ft 523 kts 250°
2026-04-23 14:13 40.13643 -77.00769 35879 ft 524 kts 250°
2026-04-23 14:14 40.10216 -77.09202 35879 ft 525 kts 250°
2026-04-23 14:14 40.06775 -77.17646 35877 ft 525 kts 249°
2026-04-23 14:15 40.03349 -77.26028 35877 ft 525 kts 249°
2026-04-23 14:15 39.99922 -77.34390 35885 ft 525 kts 249°
2026-04-23 14:16 39.96550 -77.42836 35857 ft 517 kts 256°
2026-04-23 14:16 39.95798 -77.47281 35893 ft 495 kts 273°
2026-04-23 14:16 39.95819 -77.51673 35904 ft 491 kts 278°
2026-04-23 14:17 39.96075 -77.60606 35882 ft 492 kts 279°
2026-04-23 14:17 39.96348 -77.69506 35889 ft 493 kts 278°
2026-04-23 14:18 39.96618 -77.78423 35883 ft 494 kts 278°
2026-04-23 14:18 39.96881 -77.87363 35885 ft 493 kts 278°
2026-04-23 14:19 39.97138 -77.96291 35889 ft 493 kts 278°
2026-04-23 14:19 39.97385 -78.05173 35899 ft 494 kts 278°
2026-04-23 14:20 39.97628 -78.14100 35897 ft 495 kts 278°
2026-04-23 14:20 39.97864 -78.23045 35896 ft 495 kts 278°
2026-04-23 14:21 39.98093 -78.31986 35905 ft 494 kts 278°
2026-04-23 14:21 39.98315 -78.40916 35916 ft 495 kts 278°
2026-04-23 14:22 39.98530 -78.49847 35915 ft 496 kts 278°
2026-04-23 14:22 39.98739 -78.58843 35910 ft 496 kts 278°
2026-04-23 14:23 39.98943 -78.67833 35916 ft 497 kts 277°
2026-04-23 14:23 39.99137 -78.76828 35924 ft 499 kts 277°
2026-04-23 14:24 39.99327 -78.85826 35924 ft 498 kts 277°
2026-04-23 14:24 39.99509 -78.94865 35928 ft 498 kts 277°
2026-04-23 14:25 39.99684 -79.03855 35937 ft 500 kts 277°
2026-04-23 14:25 39.99853 -79.12882 35933 ft 498 kts 277°
2026-04-23 14:26 40.00015 -79.21940 35935 ft 500 kts 277°
2026-04-23 14:26 40.00169 -79.30981 35938 ft 500 kts 277°
2026-04-23 14:27 40.00315 -79.39981 35937 ft 500 kts 277°
2026-04-23 14:27 40.00457 -79.49054 35946 ft 500 kts 276°
2026-04-23 14:28 40.00590 -79.58087 35948 ft 501 kts 276°
2026-04-23 14:28 40.00715 -79.67139 35952 ft 502 kts 276°
2026-04-23 14:29 40.00835 -79.76238 35949 ft 502 kts 275°
2026-04-23 14:29 40.00947 -79.85299 35936 ft 502 kts 276°
2026-04-23 14:30 40.01053 -79.94402 35934 ft 502 kts 275°
2026-04-23 14:30 40.01152 -80.03500 35933 ft 502 kts 275°
2026-04-23 14:31 40.01243 -80.12627 35935 ft 503 kts 275°
2026-04-23 14:31 40.01326 -80.21683 35938 ft 503 kts 275°
2026-04-23 14:32 40.01404 -80.30833 35941 ft 503 kts 275°
2026-04-23 14:32 40.01473 -80.39883 35939 ft 504 kts 275°
2026-04-23 14:33 40.01536 -80.49003 35934 ft 504 kts 275°
2026-04-23 14:33 40.01591 -80.58102 35928 ft 504 kts 275°
2026-04-23 14:34 40.01640 -80.67275 35925 ft 504 kts 274°
2026-04-23 14:34 40.01682 -80.76400 35926 ft 504 kts 274°
2026-04-23 14:35 40.01654 -80.85508 35928 ft 507 kts 273°
2026-04-23 14:35 40.01522 -80.94681 35917 ft 507 kts 272°
2026-04-23 14:36 40.01384 -81.03869 35913 ft 506 kts 272°
2026-04-23 14:36 40.01239 -81.13075 35916 ft 507 kts 272°
2026-04-23 14:37 40.01088 -81.22183 35915 ft 506 kts 272°
2026-04-23 14:37 40.00930 -81.31344 35913 ft 506 kts 272°
2026-04-23 14:38 40.00765 -81.40471 35920 ft 506 kts 272°
2026-04-23 14:38 40.00591 -81.49637 35915 ft 506 kts 272°
2026-04-23 14:39 40.00411 -81.58812 35917 ft 506 kts 272°
2026-04-23 14:39 40.00224 -81.67945 35921 ft 506 kts 272°
2026-04-23 14:40 40.00030 -81.77080 35920 ft 507 kts 271°
2026-04-23 14:40 39.99826 -81.86284 35927 ft 507 kts 271°
2026-04-23 14:41 39.99616 -81.95467 35919 ft 507 kts 271°
2026-04-23 14:41 39.99401 -82.04607 35921 ft 506 kts 271°
2026-04-23 14:42 39.99177 -82.13754 35920 ft 507 kts 271°
2026-04-23 14:42 39.98946 -82.22931 35920 ft 506 kts 271°
2026-04-23 14:43 39.98707 -82.32086 35918 ft 505 kts 271°
2026-04-23 14:43 39.98462 -82.41225 35918 ft 505 kts 271°
2026-04-23 14:44 39.98210 -82.50359 35912 ft 504 kts 271°
2026-04-23 14:44 39.97952 -82.59490 35915 ft 505 kts 271°
2026-04-23 14:45 39.97686 -82.68604 35917 ft 505 kts 271°
2026-04-23 14:45 39.97412 -82.77754 35917 ft 505 kts 271°
2026-04-23 14:46 39.97133 -82.86854 35918 ft 505 kts 271°
2026-04-23 14:46 39.96845 -82.95987 35914 ft 505 kts 270°
2026-04-23 14:47 39.96574 -83.05100 35911 ft 504 kts 271°
2026-04-23 14:47 39.96413 -83.14203 35914 ft 503 kts 271°
2026-04-23 14:48 39.96179 -83.23278 35915 ft 503 kts 271°
2026-04-23 14:48 39.95871 -83.32370 35917 ft 503 kts 271°
2026-04-23 14:49 39.95559 -83.41395 35919 ft 503 kts 270°
2026-04-23 14:49 39.95237 -83.50520 35922 ft 503 kts 270°
2026-04-23 14:50 39.94910 -83.59596 35922 ft 503 kts 270°
2026-04-23 14:50 39.94573 -83.68729 35925 ft 503 kts 270°
2026-04-23 14:51 39.94230 -83.77824 35916 ft 503 kts 270°
2026-04-23 14:51 39.93883 -83.86858 35920 ft 503 kts 270°
2026-04-23 14:52 39.93525 -83.95984 35922 ft 501 kts 270°
2026-04-23 14:52 39.93163 -84.05032 35922 ft 502 kts 270°
2026-04-23 14:53 39.92794 -84.14085 35916 ft 502 kts 270°
2026-04-23 14:53 39.92419 -84.23108 35920 ft 502 kts 270°
2026-04-23 14:54 39.92033 -84.32217 35920 ft 503 kts 270°
2026-04-23 14:54 39.91644 -84.41233 35915 ft 502 kts 270°
2026-04-23 14:55 39.91246 -84.50320 35911 ft 503 kts 270°
2026-04-23 14:55 39.90844 -84.59312 35907 ft 502 kts 270°
2026-04-23 14:56 39.90431 -84.68379 35916 ft 501 kts 269°
2026-04-23 14:56 39.90011 -84.77450 35914 ft 501 kts 269°
2026-04-23 14:57 39.89584 -84.86520 35911 ft 501 kts 269°
2026-04-23 14:57 39.89152 -84.95541 35910 ft 501 kts 269°
2026-04-23 14:58 39.88712 -85.04586 35902 ft 501 kts 269°
2026-04-23 14:58 39.88262 -85.13675 35905 ft 501 kts 269°
2026-04-23 14:59 39.87807 -85.22736 35907 ft 501 kts 269°
2026-04-23 14:59 39.87347 -85.31760 35910 ft 501 kts 269°
2026-04-23 15:00 39.86883 -85.40711 35906 ft 499 kts 269°
2026-04-23 15:00 39.86409 -85.49731 35894 ft 498 kts 268°
2026-04-23 15:01 39.85932 -85.58679 35893 ft 499 kts 268°
2026-04-23 15:01 39.85442 -85.67719 35893 ft 499 kts 268°
2026-04-23 15:02 39.84951 -85.76676 35895 ft 498 kts 268°
2026-04-23 15:02 39.84450 -85.85667 35906 ft 498 kts 268°
2026-04-23 15:03 39.83944 -85.94630 35908 ft 497 kts 268°
2026-04-23 15:03 39.83430 -86.03612 35912 ft 497 kts 267°
2026-04-23 15:04 39.82912 -86.12529 35904 ft 496 kts 267°
2026-04-23 15:04 39.82387 -86.21465 35905 ft 496 kts 267°
2026-04-23 15:05 39.81855 -86.30389 35896 ft 496 kts 267°
2026-04-23 15:05 39.80923 -86.39238 35914 ft 497 kts 257°
2026-04-23 15:06 39.79105 -86.47911 35901 ft 498 kts 257°
2026-04-23 15:06 39.77263 -86.56578 35898 ft 498 kts 257°
2026-04-23 15:07 39.75410 -86.65256 35894 ft 498 kts 256°
2026-04-23 15:07 39.73553 -86.73918 35904 ft 497 kts 256°
2026-04-23 15:08 39.71695 -86.82550 35898 ft 497 kts 256°
2026-04-23 15:09 39.68892 -86.95507 35893 ft 497 kts 256°
2026-04-23 15:09 39.67026 -87.04089 35889 ft 497 kts 256°
2026-04-23 15:10 39.65141 -87.12723 35877 ft 497 kts 256°
2026-04-23 15:10 39.63260 -87.21312 35862 ft 497 kts 256°
2026-04-23 15:11 39.61372 -87.29894 35869 ft 496 kts 255°
2026-04-23 15:11 39.59470 -87.38506 35874 ft 496 kts 256°
2026-04-23 15:12 39.57580 -87.47032 35868 ft 496 kts 255°
2026-04-23 15:12 39.55667 -87.55627 35873 ft 496 kts 255°
2026-04-23 15:13 39.53769 -87.64126 35863 ft 495 kts 255°
2026-04-23 15:13 39.51837 -87.72738 35867 ft 495 kts 255°
2026-04-23 15:14 39.49914 -87.81282 35854 ft 495 kts 255°
2026-04-23 15:14 39.47992 -87.89786 35851 ft 494 kts 254°
2026-04-23 15:15 39.46052 -87.98337 35854 ft 496 kts 254°
2026-04-23 15:15 39.44110 -88.06863 35853 ft 495 kts 254°
2026-04-23 15:16 39.42162 -88.15385 35857 ft 496 kts 254°
2026-04-23 15:16 39.40221 -88.23846 35854 ft 495 kts 254°
2026-04-23 15:17 39.38255 -88.32381 35853 ft 494 kts 254°
2026-04-23 15:17 39.36297 -88.40855 35854 ft 494 kts 254°
2026-04-23 15:18 39.34344 -88.49274 35842 ft 493 kts 254°